Regional Weather Roundup
Issued by NWS

Home | Current Version | Previous Version | Graphics & Text | Print | Product List | Glossary On
Versions: 1 2 3 4 5 6 7 8 9 10 11 12 13 14 15 16 17 18 19 20 21 22 23 24 25 26 27
000
ASUS45 KTFX 222010
RWRMT
MONTANA REGIONAL WEATHER ROUNDUP
NATIONAL WEATHER SERVICE GREAT FALLS MT
200 PM MDT TUE MAY 22 2018

NOTE: "FAIR" INDICATES FEW OR NO CLOUDS BELOW 12000 FEET WITH NO
SIGNIFICANT WEATHER AND/OR OBSTRUCTIONS TO VISIBILITY.

MTZ001>007-043-222100-
WEST OF THE DIVIDE

CITY           SKY/WX    TMP DP  RH WIND       PRES   REMARKS
KALISPELL      FAIR      79  42  26 W7        29.93F
MISSOULA       FAIR      74  44  34 E14       29.95F
BUTTE          FAIR      68  39  34 SE5       30.01F
MULLAN PASS    LGT RAIN  51  46  83 SE8       30.07F
ANACONDA         N/A     64  46  52 MISG      30.00F
DEER LODGE       N/A     66  48  52 NE15      30.04S
HAMILTON         N/A     70  52  52 MISG      29.94F
PLAINS           N/A     75  53  46 CALM      29.94F
RONAN            N/A     70  52  52 SW5       29.97
$$

MTZ008-052>055-222100-
SOUTHWEST MONTANA

CITY           SKY/WX    TMP DP  RH WIND       PRES   REMARKS
BOZEMAN        FAIR      67  50  54 S3        29.97F
DILLON         FAIR      67  48  50 NE5       29.98F
ENNIS          CLOUDY    64  48  55 W10       30.03F
W YELLOWSTONE  FAIR      68  37  32 E8        29.99F
TWIN BRIDGES     N/A     72  47  40 N10       29.96F
$$

MTZ009-010-012-014-046-048-049-054-222100-
EAST SLOPES AND CENTRAL MONTANA

CITY           SKY/WX    TMP DP  RH WIND       PRES   REMARKS
CUT BANK       PTSUNNY   71  40  32 S6        30.01F
GREAT FALLS    PTSUNNY   64  50  60 CALM      30.03F
MALMSTROM AFB  FAIR      64  53  67 SW6       30.04S
HELENA         PTSUNNY   66  51  58 NE15      30.00F
AUGUSTA        FAIR      62  47  58 S12       30.06S
BOWMANS CRNR   LGT RAIN  55  50  83 W5        30.05F
CHOTEAU          N/A     70  48  46 S12       30.05F
FAIRFIELD      FAIR      64  50  61 S10       30.03F
POWER          PTSUNNY   63  47  55 SW8       30.03F
RAYNESFORD     FAIR      65  49  56 E12       30.05F
ULM            LGT RAIN  60  52  74 CALM      30.04S
WHITE SULPHUR    N/A     55  48  76 W21G30    30.00S
$$

MTZ011-013-016-021-045-047-050-051-222100-
NORTH CENTRAL MONTANA

CITY           SKY/WX    TMP DP  RH WIND       PRES   REMARKS
HAVRE          FAIR      79  40  24 N8        29.95F
LEWISTOWN      CLOUDY    63  51  65 N7        30.06F
N BAR RANCH    PTSUNNY   61  54  77 NW15      30.06F
CHINOOK          N/A     79  41  25 N7        29.94F
DENTON         LGT RAIN  58  53  81 E8        30.02F
GEYSER         FAIR      62  47  58 SE12      30.06F
GRASS RANGE    LGT RAIN  60  55  85 W9        30.01F
JUDITH GAP     PTSUNNY   60  52  73 N17       30.04F
ROY            PTSUNNY   61  53  74 W15       30.02S
STANFORD       PTSUNNY   56  50  80 E6        30.08S
WINIFRED       LGT RAIN  57  53  87 CALM      30.05S
$$

MTZ017>020-022>027-061-062-222100-
NORTHEAST MONTANA

CITY           SKY/WX    TMP DP  RH WIND       PRES   REMARKS
GLASGOW        FAIR      78  45  30 S14G20    29.92F
GLENDIVE       CLOUDY    72  56  57 N10       29.95F
JORDAN           N/A     75  52  44 VRB3      29.94F
MALTA          MOSUNNY   77  46  33 SW5       29.90F
SIDNEY         FAIR      74  56  53 N10       29.93F
WOLF POINT     FAIR      75  53  46 SW3       29.93F
PLENTYWOOD       N/A     79  46  31 MISG      29.91F
POPLAR           N/A     73  54  49 SW3       29.93F
$$

MTZ028>42-056>058-222100-
SOUTHCENTRAL AND SOUTHEAST MONTANA

CITY           SKY/WX    TMP DP  RH WIND       PRES   REMARKS
BAKER          FAIR      76  54  46 S5        29.94F
BILLINGS       PTSUNNY   73  51  46 E10       29.97F
LIVINGSTON     FAIR      70  52  52 E17G25    29.97F
MILES CITY     FAIR      75  59  57 SW3       29.92F
BIG TIMBER     PTSUNNY   68  52  56 E7        30.01F
FORSYTH          N/A     73  54  49 NW7       29.92F
HARLOWTON      FAIR      61  51  69 N25       30.01F
LAUREL           N/A     72  50  46 NE8G15    29.97F
$$

REGIONAL REPORTS...DAKOTAS

CITY           SKY/WX    TMP DP  RH WIND       PRES   REMARKS
WILLISTON      LGT RAIN  74  51  44 CALM      29.92F
MINOT          FAIR      84  45  25 MISG      29.89F
DICKINSON      FAIR      80  49  33 SE9       29.91F
BEACH          CLOUDY    75  50  41 CALM      29.97F
CROSBY         FAIR      82  45  26 S13       29.90S
TIOGA          PTSUNNY   79  46  31 SW10      29.93F
WATFORD CITY   FAIR      81  52  36 W9        29.91F
BISMARCK       FAIR      81  55  40 E7        29.92F
GRAND FORKS    PTSUNNY   78  57  48 VRB5      29.94F
FARGO          FAIR      78  56  46 VRB3      29.96F
BUFFALO SD       N/A     79  51  37 VRB3      29.87F
RAPID CITY     FAIR      78  56  46 E8G18     29.93F
$$

REGIONAL REPORTS...WYOMING/IDAHO/WASHINGTON

CITY           SKY/WX    TMP DP  RH WIND       PRES   REMARKS
GILLETTE       FAIR      76  47  35 MISG      29.96F
SHERIDAN       FAIR      71  54  54 W7        29.97F
BUFFALO WY     FAIR      71  49  45 NW9       30.01F
CODY           FAIR      68  47  46 CALM      30.01F
YELLOWSTONE LA   N/A     58  32  37 VRB5      30.10F
IDAHO FALLS    FAIR      69  45  41 SE5       29.94F
SALMON         TSTM      60  50  69 SW25G37   29.92F
BOISE          FAIR      77  53  43 NE5       29.85F
SPOKANE        FAIR      79  50  36 N7        29.91F
$$

REGIONAL REPORTS...ALBERTA

CITY           SKY/WX    TMP DP  RH WIND       PRES   REMARKS
CALGARY        MOSUNNY   75  39  27 SE13      30.00F
EDMONTON       MOSUNNY   77  45  31 N3        29.94F
FORT MCMURRAY  SUNNY     84  37  18 SW12G21   29.84F
HIGH LEVEL     PTSUNNY   77  43  29 S6        29.74F
LETHBRIDGE     PTSUNNY   77  43  29 SE8       29.98F
LLOYDMINSTER   MOSUNNY   79  43  27 VRB3      29.94F
MEDICINE HAT   MOSUNNY   77  41  27 NE5       29.95F
MILK RIVER       N/A     77  41  27 NE6         N/A
ONEFOUR          N/A     77  36  22 N10G20      N/A
PEACE RIVER    PTSUNNY   79  43  27 SW10G22   29.88F
PINCHER CREEK    N/A     73  41  31 SE10      30.01F
WATERTON GATE    N/A     64  45  48 W9          N/A
$$

REGIONAL REPORTS...SASKATCHEWAN

CITY           SKY/WX    TMP DP  RH WIND       PRES   REMARKS
CORONACH         N/A     79  45  29 SE7         N/A
CYPRESS HILLS    N/A     70  39  32 N6          N/A
ESTEVAN        CLOUDY    81  43  26 S12G20    29.88F
MOOSE JAW        N/A     81  36  19 NW8         N/A
PRINCE ALBERT  PTSUNNY   79  50  36 S3        29.93F
REGINA         PTSUNNY   84  43  23 VRB13     29.87F
ROCKGLEN         N/A     77  43  29 N5          N/A
SASKATOON      PTSUNNY   79  43  27 E7        29.93F
SWIFT CURRENT  MOSUNNY   75  41  29 NW10      29.95S
VAL MARIE        N/A     77  37  24 NW7         N/A
$$




USA.gov is the U.S. government's official web portal to all federal, state and local government web resources and services.